| time (UTC) | temp F | wind direction | speed MPH | gust MPH | rain 1hr in | rain 24hr in | rain mn in | humidity % | barometer mb |
| 20260901041954 | 78 | 28 | 0.0 | 3.0 | 0.00 | 0.28 | 0.00 | 94 | 1017.1 |
| 20260901040941 | 78 | 28 | 1.0 | 4.0 | 0.00 | 0.28 | 0.00 | 94 | 1017.1 |
| 20260901035938 | 78 | 28 | 0.0 | 0.0 | 0.00 | 0.28 | 0.28 | 94 | 1017.2 |
| 20260901034938 | 78 | 28 | 0.0 | 1.0 | 0.00 | 0.28 | 0.28 | 94 | 1017.1 |
| 20260901034425 | 78 | 28 | 0.0 | 0.0 | 0.00 | 0.28 | 0.28 | 94 | 1017.2 |
| 20260901032936 | 78 | 28 | 0.0 | 0.0 | 0.00 | 0.28 | 0.28 | 94 | 1017.2 |
| 20260901031936 | 78 | 28 | 0.0 | 1.0 | 0.00 | 0.28 | 0.28 | 94 | 1017.3 |
| 20260901030937 | 78 | 28 | 1.0 | 3.0 | 0.00 | 0.28 | 0.28 | 94 | 1017.4 |
| 20260901025936 | 78 | 28 | 0.0 | 3.0 | 0.00 | 0.28 | 0.28 | 94 | 1017.3 |
| 20260901024935 | 78 | 28 | 1.0 | 3.0 | 0.00 | 0.28 | 0.28 | 94 | 1017.2 |
| 20260901023936 | 78 | 28 | 0.0 | 2.0 | 0.00 | 0.28 | 0.28 | 94 | 1017.2 |
| 20260901022937 | 78 | 28 | 0.0 | 0.0 | 0.00 | 0.28 | 0.28 | 94 | 1017.1 |
| 20260901021940 | 78 | 28 | 0.0 | 1.0 | 0.00 | 0.28 | 0.28 | 94 | 1016.9 |
| 20260901020920 | 78 | 28 | 0.0 | 0.0 | 0.00 | 0.28 | 0.28 | 94 | 1016.9 |
| 20260901015917 | 79 | 28 | 0.0 | 2.0 | 0.00 | 0.28 | 0.28 | 94 | 1016.9 |
| 20260901015347 | 78 | 28 | 0.0 | 2.0 | 0.00 | 0.28 | 0.28 | 94 | 1016.7 |
| 20260901013858 | 78 | 28 | 0.0 | 0.0 | 0.00 | 0.28 | 0.28 | 94 | 1016.6 |
| 20260901012838 | 78 | 28 | 0.0 | 0.0 | 0.00 | 0.28 | 0.28 | 94 | 1016.6 |
| 20260901011835 | 78 | 28 | 0.0 | 0.0 | 0.00 | 0.28 | 0.28 | 94 | 1016.6 |
| 20260901010818 | 78 | 28 | 0.0 | 0.0 | 0.00 | 0.28 | 0.28 | 94 | 1016.5 |
| 20260901005753 | 79 | 28 | 0.0 | 1.0 | 0.00 | 0.28 | 0.28 | 94 | 1016.3 |
| 20260901004737 | 79 | 28 | 0.0 | 0.0 | 0.00 | 0.28 | 0.28 | 94 | 1016.3 |
| 20260901003735 | 79 | 28 | 0.0 | 0.0 | 0.00 | 0.28 | 0.28 | 94 | 1016.3 |
| 20260901002729 | 79 | 28 | 0.0 | 0.0 | 0.00 | 0.28 | 0.28 | 93 | 1016.4 |
| 20260901001719 | 79 | 28 | 0.0 | 0.0 | 0.00 | 0.28 | 0.28 | 93 | 1016.3 |
| 20260901000637 | 79 | 28 | 0.0 | 2.0 | 0.00 | 0.28 | 0.28 | 93 | 1016.3 |
| 20260901000112 | 79 | 28 | 0.0 | 0.0 | 0.00 | 0.28 | 0.28 | 93 | 1016.4 |
| 20260831234628 | 79 | 28 | 0.0 | 0.0 | 0.00 | 0.28 | 0.28 | 93 | 1016.2 |
| 20260831233622 | 79 | 28 | 0.0 | 0.0 | 0.00 | 0.28 | 0.28 | 93 | 1016.0 |
| 20260831232621 | 79 | 28 | 0.0 | 0.0 | 0.00 | 0.28 | 0.28 | 93 | 1016.0 |
| 20260831231617 | 79 | 28 | 0.0 | 0.0 | 0.00 | 0.28 | 0.28 | 92 | 1016.0 |
| 20260831230603 | 79 | 28 | 0.0 | 1.0 | 0.00 | 0.28 | 0.28 | 92 | 1016.0 |
| 20260831225550 | 79 | 28 | 1.0 | 4.0 | 0.00 | 0.28 | 0.28 | 91 | 1016.1 |
| 20260831224547 | 80 | 28 | 1.0 | 4.0 | 0.00 | 0.28 | 0.28 | 91 | 1016.1 |
| 20260831223547 | 80 | 28 | 1.0 | 3.0 | 0.00 | 0.28 | 0.28 | 91 | 1016.1 |
| 20260831222545 | 80 | 28 | 2.0 | 4.0 | 0.00 | 0.28 | 0.28 | 91 | 1016.1 |
| 20260831222015 | 80 | 28 | 2.0 | 5.0 | 0.00 | 0.28 | 0.28 | 90 | 1016.1 |
| 20260831220534 | 80 | 31 | 2.0 | 4.0 | 0.00 | 0.28 | 0.28 | 91 | 1016.0 |
| 20260831220015 | 80 | 35 | 2.0 | 4.0 | 0.00 | 0.28 | 0.28 | 91 | 1016.2 |
| 20260831214529 | 80 | 36 | 2.0 | 5.0 | 0.01 | 0.28 | 0.28 | 92 | 1016.2 |
| 20260831213527 | 80 | 31 | 2.0 | 4.0 | 0.02 | 0.28 | 0.28 | 92 | 1016.3 |
| 20260831212528 | 79 | 28 | 2.0 | 5.0 | 0.02 | 0.28 | 0.28 | 92 | 1016.4 |
| 20260831211527 | 78 | 21 | 2.0 | 7.0 | 0.03 | 0.28 | 0.28 | 92 | 1016.5 |
| 20260831210527 | 79 | 93 | 1.0 | 4.0 | 0.03 | 0.28 | 0.28 | 92 | 1016.5 |
| 20260831205514 | 78 | 93 | 2.0 | 6.0 | 0.04 | 0.28 | 0.28 | 92 | 1016.3 |
| 20260831204513 | 78 | 77 | 2.0 | 5.0 | 0.04 | 0.27 | 0.27 | 92 | 1016.4 |
| 20260831203509 | 78 | 21 | 1.0 | 3.0 | 0.04 | 0.26 | 0.26 | 92 | 1016.5 |
| 20260831202939 | 78 | 21 | 2.0 | 5.0 | 0.05 | 0.26 | 0.26 | 92 | 1016.5 |
| 20260831201500 | 78 | 119 | 3.0 | 8.0 | 0.05 | 0.25 | 0.25 | 92 | 1016.4 |
| 20260831201436 | 78 | 76 | 3.0 | 9.0 | 0.07 | 0.25 | 0.25 | 91 | 1016.6 |
| 20260831195456 | 78 | 68 | 3.0 | 7.0 | 0.10 | 0.24 | 0.24 | 91 | 1016.9 |
| 20260831194453 | 78 | 52 | 3.0 | 8.0 | 0.19 | 0.23 | 0.23 | 91 | 1017.2 |
| 20260831193452 | 78 | 34 | 4.0 | 10.0 | 0.22 | 0.22 | 0.22 | 91 | 1017.3 |
| 20260831192451 | 78 | 55 | 4.0 | 15.0 | 0.21 | 0.21 | 0.21 | 90 | 1017.1 |
| 20260831191444 | 78 | 75 | 5.0 | 10.0 | 0.20 | 0.20 | 0.20 | 89 | 1016.7 |
| 20260831190443 | 78 | 104 | 7.0 | 16.0 | 0.18 | 0.18 | 0.18 | 88 | 1016.4 |
| 20260831185441 | 78 | 36 | 6.0 | 15.0 | 0.14 | 0.14 | 0.14 | 87 | 1016.3 |
| 20260831184444 | 80 | 59 | 8.0 | 14.0 | 0.04 | 0.04 | 0.04 | 83 | 1016.4 |
| 20260831183439 | 85 | 81 | 7.0 | 15.0 | 0.00 | 0.00 | 0.00 | 75 | 1016.3 |
| 20260831182439 | 89 | 63 | 4.0 | 14.0 | 0.00 | 0.00 | 0.00 | 69 | 1016.2 |
| 20260831181434 | 91 | 64 | 4.0 | 7.0 | 0.00 | 0.00 | 0.00 | 63 | 1016.0 |
| 20260831180433 | 94 | 60 | 5.0 | 9.0 | 0.00 | 0.00 | 0.00 | 64 | 1016.0 |
| 20260831175911 | 95 | 25 | 3.0 | 8.0 | 0.00 | 0.00 | 0.00 | 62 | 1016.0 |
| 20260831174912 | 93 | 51 | 4.0 | 9.0 | 0.00 | 0.00 | 0.00 | 61 | 1016.2 |
| 20260831173434 | 92 | 10 | 5.0 | 9.0 | 0.00 | 0.00 | 0.00 | 66 | 1016.4 |
| 20260831172430 | 92 | 29 | 3.0 | 9.0 | 0.00 | 0.00 | 0.00 | 63 | 1016.6 |
| 20260831171432 | 93 | 346 | 3.0 | 9.0 | 0.00 | 0.00 | 0.00 | 63 | 1016.7 |
| 20260831170427 | 92 | 332 | 2.0 | 9.0 | 0.00 | 0.00 | 0.00 | 65 | 1016.8 |
| 20260831165425 | 89 | 308 | 2.0 | 5.0 | 0.00 | 0.00 | 0.00 | 67 | 1017.0 |
| 20260831164424 | 89 | 324 | 0.0 | 4.0 | 0.00 | 0.00 | 0.00 | 74 | 1017.1 |
| 20260831163424 | 90 | 24 | 2.0 | 5.0 | 0.00 | 0.00 | 0.00 | 67 | 1017.3 |
| 20260831162425 | 89 | 44 | 2.0 | 5.0 | 0.00 | 0.00 | 0.00 | 71 | 1017.4 |
| 20260831161424 | 91 | 5 | 2.0 | 8.0 | 0.00 | 0.00 | 0.00 | 74 | 1017.5 |
| 20260831160425 | 88 | 331 | 2.0 | 5.0 | 0.00 | 0.00 | 0.00 | 74 | 1017.6 |
| 20260831155426 | 90 | 343 | 2.0 | 8.0 | 0.00 | 0.00 | 0.00 | 74 | 1017.8 |
| 20260831154425 | 86 | 10 | 1.0 | 3.0 | 0.00 | 0.00 | 0.00 | 77 | 1017.8 |
| 20260831153422 | 87 | 19 | 2.0 | 7.0 | 0.00 | 0.00 | 0.00 | 77 | 1017.9 |
| 20260831152422 | 87 | 21 | 2.0 | 7.0 | 0.00 | 0.00 | 0.00 | 76 | 1017.9 |
| 20260831151422 | 87 | 15 | 3.0 | 9.0 | 0.00 | 0.00 | 0.00 | 77 | 1018.0 |
| 20260831150906 | 86 | 20 | 1.0 | 3.0 | 0.00 | 0.00 | 0.00 | 77 | 1017.9 |
| 20260831145423 | 85 | 28 | 1.0 | 4.0 | 0.00 | 0.00 | 0.00 | 78 | 1017.8 |
| 20260831144414 | 87 | 29 | 1.0 | 5.0 | 0.00 | 0.00 | 0.00 | 76 | 1017.7 |
| 20260831143412 | 87 | 27 | 2.0 | 5.0 | 0.00 | 0.00 | 0.00 | 78 | 1017.7 |
| 20260831142412 | 86 | 24 | 1.0 | 4.0 | 0.00 | 0.00 | 0.00 | 82 | 1017.7 |
| 20260831141412 | 85 | 27 | 2.0 | 4.0 | 0.00 | 0.00 | 0.00 | 84 | 1017.7 |
| 20260831140413 | 84 | 351 | 2.0 | 4.0 | 0.00 | 0.00 | 0.00 | 84 | 1017.8 |
| 20260831135410 | 83 | 10 | 1.0 | 6.0 | 0.00 | 0.00 | 0.00 | 89 | 1017.8 |
| 20260831134410 | 82 | 15 | 1.0 | 4.0 | 0.00 | 0.00 | 0.00 | 91 | 1017.7 |
| 20260831133410 | 81 | 10 | 2.0 | 4.0 | 0.00 | 0.00 | 0.00 | 93 | 1017.6 |
| 20260831132816 | 79 | 19 | 1.0 | 4.0 | 0.00 | 0.00 | 0.00 | 94 | 1017.3 |
| 20260831132453 | 80 | 5 | 1.0 | 4.0 | 0.00 | 0.00 | 0.00 | 94 | 1017.5 |
| 20260831130408 | 79 | 337 | 1.0 | 5.0 | 0.00 | 0.00 | 0.00 | 95 | 1017.3 |
| 20260831125409 | 78 | 350 | 0.0 | 3.0 | 0.00 | 0.00 | 0.00 | 94 | 1017.3 |
| 20260831124407 | 78 | 350 | 0.0 | 3.0 | 0.00 | 0.00 | 0.00 | 94 | 1017.3 |
| 20260831123411 | 78 | 350 | 2.0 | 4.0 | 0.00 | 0.00 | 0.00 | 95 | 1017.3 |
| 20260831122402 | 78 | 348 | 1.0 | 3.0 | 0.00 | 0.00 | 0.00 | 95 | 1017.2 |
| 20260831121354 | 77 | 350 | 2.0 | 4.0 | 0.00 | 0.00 | 0.00 | 95 | 1017.1 |
| 20260831120348 | 77 | 341 | 0.0 | 0.0 | 0.00 | 0.00 | 0.00 | 95 | 1017.0 |
| 20260831115345 | 76 | 342 | 0.0 | 0.0 | 0.00 | 0.00 | 0.00 | 95 | 1016.8 |
| 20260831114346 | 76 | 342 | 0.0 | 0.0 | 0.00 | 0.00 | 0.00 | 95 | 1016.7 |
| 20260831113344 | 75 | 341 | 0.0 | 0.0 | 0.00 | 0.00 | 0.00 | 94 | 1016.6 |
| 20260831112341 | 75 | 341 | 0.0 | 0.0 | 0.00 | 0.00 | 0.00 | 95 | 1016.4 |
| 20260831111337 | 75 | 341 | 0.0 | 0.0 | 0.00 | 0.00 | 0.00 | 94 | 1016.4 |
| 20260831110333 | 75 | 342 | 0.0 | 0.0 | 0.00 | 0.00 | 0.00 | 94 | 1016.2 |
| 20260831105334 | 74 | 342 | 0.0 | 0.0 | 0.00 | 0.00 | 0.00 | 94 | 1015.9 |
| 20260831104336 | 74 | 342 | 0.0 | 0.0 | 0.00 | 0.00 | 0.00 | 95 | 1015.8 |
| 20260831103333 | 74 | 342 | 0.0 | 0.0 | 0.00 | 0.00 | 0.00 | 94 | 1015.9 |
| 20260831102333 | 74 | 342 | 0.0 | 0.0 | 0.00 | 0.00 | 0.00 | 94 | 1015.8 |
| 20260831101333 | 74 | 342 | 0.0 | 0.0 | 0.00 | 0.00 | 0.00 | 94 | 1015.7 |
| 20260831100814 | 74 | 342 | 0.0 | 0.0 | 0.00 | 0.00 | 0.00 | 94 | 1015.7 |
| 20260831095319 | 74 | 342 | 0.0 | 0.0 | 0.00 | 0.00 | 0.00 | 94 | 1015.6 |
| 20260831094320 | 74 | 342 | 0.0 | 0.0 | 0.00 | 0.00 | 0.00 | 94 | 1015.6 |
| 20260831093319 | 74 | 341 | 0.0 | 0.0 | 0.00 | 0.00 | 0.00 | 94 | 1015.6 |
| 20260831092322 | 74 | 342 | 0.0 | 0.0 | 0.00 | 0.00 | 0.00 | 94 | 1015.6 |
| 20260831091321 | 74 | 342 | 0.0 | 0.0 | 0.00 | 0.00 | 0.00 | 94 | 1015.6 |
| 20260831090317 | 75 | 342 | 0.0 | 3.0 | 0.00 | 0.00 | 0.00 | 94 | 1015.6 |
| 20260831085319 | 75 | 341 | 0.0 | 2.0 | 0.00 | 0.00 | 0.00 | 94 | 1015.7 |
| 20260831084318 | 75 | 342 | 0.0 | 0.0 | 0.00 | 0.00 | 0.00 | 94 | 1015.7 |
| 20260831083318 | 74 | 342 | 0.0 | 2.0 | 0.00 | 0.00 | 0.00 | 94 | 1015.7 |
| 20260831082315 | 74 | 341 | 0.0 | 0.0 | 0.00 | 0.00 | 0.00 | 94 | 1015.7 |
| 20260831081757 | 74 | 342 | 0.0 | 0.0 | 0.00 | 0.00 | 0.00 | 94 | 1015.8 |
| 20260831080753 | 74 | 342 | 0.0 | 0.0 | 0.00 | 0.00 | 0.00 | 94 | 1015.8 |
| 20260831075754 | 74 | 342 | 0.0 | 2.0 | 0.00 | 0.01 | 0.00 | 94 | 1015.9 |
| 20260831074316 | 74 | 341 | 0.0 | 0.0 | 0.00 | 0.01 | 0.00 | 94 | 1016.0 |
| 20260831073313 | 74 | 342 | 0.0 | 0.0 | 0.00 | 0.01 | 0.00 | 93 | 1016.2 |
| 20260831072311 | 74 | 342 | 1.0 | 2.0 | 0.00 | 0.01 | 0.00 | 94 | 1016.2 |
| 20260831071312 | 74 | 342 | 0.0 | 2.0 | 0.00 | 0.01 | 0.00 | 94 | 1016.2 |
| 20260831070309 | 75 | 341 | 0.0 | 0.0 | 0.00 | 0.01 | 0.00 | 94 | 1016.0 |
| 20260831065311 | 75 | 342 | 0.0 | 0.0 | 0.00 | 0.01 | 0.00 | 94 | 1016.1 |
| 20260831064312 | 75 | 342 | 0.0 | 0.0 | 0.00 | 0.01 | 0.00 | 94 | 1016.2 |
| 20260831063309 | 75 | 342 | 0.0 | 0.0 | 0.00 | 0.01 | 0.00 | 94 | 1016.3 |
| 20260831062752 | 75 | 342 | 0.0 | 1.0 | 0.00 | 0.01 | 0.00 | 94 | 1016.4 |
| 20260831061310 | 74 | 342 | 0.0 | 0.0 | 0.00 | 0.01 | 0.00 | 94 | 1016.3 |
| 20260831060309 | 74 | 341 | 0.0 | 0.0 | 0.00 | 0.01 | 0.00 | 93 | 1016.4 |
| 20260831055310 | 75 | 341 | 0.0 | 1.0 | 0.00 | 0.01 | 0.00 | 94 | 1016.5 |
| 20260831054311 | 75 | 342 | 0.0 | 0.0 | 0.00 | 0.01 | 0.00 | 93 | 1016.6 |
| 20260831053311 | 75 | 342 | 0.0 | 0.0 | 0.00 | 0.01 | 0.00 | 94 | 1016.8 |
| 20260831052308 | 75 | 342 | 0.0 | 0.0 | 0.00 | 0.01 | 0.00 | 94 | 1016.9 |
| 20260831051308 | 75 | 341 | 0.0 | 0.0 | 0.00 | 0.01 | 0.00 | 93 | 1017.0 |
| 20260831050334 | 75 | 341 | 0.0 | 0.0 | 0.00 | 0.01 | 0.00 | 93 | 1017.2 |
| 20260831050310 | 75 | 342 | 0.0 | 1.0 | 0.00 | 0.01 | 0.00 | 93 | 1017.0 |
| 20260831045730 | 76 | 342 | 0.0 | 1.0 | 0.00 | 0.01 | 0.00 | 93 | 1017.1 |
| 20260831043749 | 76 | 342 | 0.0 | 0.0 | 0.00 | 0.01 | 0.00 | 93 | 1017.1 |